RADUGA-1 8 [-]

Last updated on Wed Jun 28 2023 00:02:57 GMT+0000 (Coordinated Universal Time)

1 34264U 09010A 23177.62210918 .00000119 00000+0 00000+0 0 9997 2 34264 9.9631 51.1935 0014040 12.8397 294.6018 0.99821214 52320
UTC large
Height (km)
Speed (km/s)
/
Latitude / Longitude
Inclination (degrees)
Orbital Period (minutes)
Azimuth
Elevation
Range (km)
Doppler Factor

Next 0 passes for location: London (51.5072 / 0.1276)

Sorry there are no passes over London.
RADUGA-1 8 [-]